Regional Weather Roundup
Issued by NWS

Home | Current Version | Previous Version | Text Only | Print | Product List | Glossary On
Versions: 1 2 3 4 5 6 7 8 9 10 11 12 13 14 15 16 17 18 19 20 21 22 23 24 25 26 27 28 29 30 31 32 33 34 35 36 37 38 39 40 41 42 43 44 45 46 47 48 49 50
000
ASUS44 KMEG 260010
RWRTN
TENNESSEE HOURLY STATE WEATHER ROUNDUP
NATIONAL WEATHER SERVICE MEMPHIS TN
700 PM CDT WED MAY 25 2016

TNZ002-004-019-021-049-052-054-088>092-260100-
WEST TENNESSEE

CITY           SKY/WX    TMP DP  RH WIND       PRES   REMARKS
MEMPHIS INTL   CLOUDY    73  67  81 SE8       30.07R
NWS MEMPHIS      N/A     70 N/A N/A MISG        N/A
JACKSON        CLOUDY    68  64  87 S6        30.10R
DYERSBURG      CLOUDY    66  64  94 SE7       30.08R
UNION CITY     SUNNY     70  70 100 S8        30.06R
PARIS          MOSUNNY   64  64 100 S8        30.08R
LEXINGTON      PTSUNNY   66  64  94 SE12      30.09F
$$

TNZ008-025-027-028-033-062-065-066-260100-
NORTH MIDDLE TENNESSEE

CITY           SKY/WX    TMP DP  RH WIND       PRES   REMARKS
NASHVILLE      CLOUDY    74  65  73 VRB3      30.14R
CLARKSVILLE    RAIN      66  64  93 S9        30.10F
SMYRNA         MOCLDY    76  67  73 NW5       30.13R
COOKEVILLE     PTCLDY    79  70  73 CALM      30.14R
CROSSVILLE     CLOUDY    75  60  59 CALM      30.20R
$$

TNZ061-075-076-078-094-096-097-260100-
SOUTH MIDDLE TENNESSEE

CITY           SKY/WX    TMP DP  RH WIND       PRES   REMARKS
FAYETTEVILLE   MOCLDY    82  59  44 SW7       30.15R
TULLAHOMA      PTCLDY    79  59  50 S3        30.16R
WINCHESTER     MOCLDY    82  61  47 S5        30.16R
MCMINNVILLE    MOCLDY    82  61  47 S3        30.15R
COLUMBIA       MOCLDY    75  70  83 W10       30.18R
SHELBYVILLE    MOCLDY    84  63  48 SW7       30.15R
$$

TNZ017-018-042-046-047-260100-
NORTHEAST TENNESSEE

CITY           SKY/WX    TMP DP  RH WIND       PRES   REMARKS
TRI CITIES     MOCLDY    77  59  53 W7        30.17S
$$

TNZ012-013-036-069-073-074-260100-
CENTRAL EAST TENNESSEE

CITY           SKY/WX    TMP DP  RH WIND       PRES   REMARKS
KNOXVILLE      MOCLDY    81  58  45 W5        30.15R
OAK RIDGE      CLOUDY    80  60  50 SW3       30.16S
GATLINBURG     CLOUDY    79  61  53 CALM      30.15S
$$

TNZ083-085-099-260100-
SOUTHEAST TENNESSEE

CITY           SKY/WX    TMP DP  RH WIND       PRES   REMARKS
CHATTANOOGA    MOCLDY    84  56  38 SW6       30.14R
$$

SKY/WX REPORTED AS FAIR MEANS FEW OR NO CLOUDS BELOW
12 THOUSAND FEET.




USA.gov is the U.S. government's official web portal to all federal, state and local government web resources and services.